IMAGE

operational
NORAD ID: 26113 Int'l Des: 2000-017 Owner: GSFC Country: US
MEOELLIPTICALRETROGRADEHEO_ELLIPTICAL

IMAGEについて

説明を読み込み中...

リアルタイム位置

3D地球を読み込み中...

次回通過

高度履歴

Altitude vs Time

uPlot chart will show altitude changes over time

軌道要素

1 26113U 00017A 26062.14518066 .00000070 00000-0 30215-2 0 9998
2 26113 94.1357 313.9399 7512345 299.9178 6.8844 1.68665517159711
Epoch: Mar 3, 2026 • Age: 29 hours

現在のステータス

高度 33194.7 km
速度 2.60 km/s
衛星直下点 33.42°N, 94.67°W
打ち上げ日 Mar 25, 2000
運用期間 25.9 years
タイプ other

技術仕様

分類 Payload
質量 494.00 kg
乾燥質量 494.00 kg
総質量 494.00 kg
長さ 1.50 m
直径 2.30 m
スパン 500.00 m
形状 Oct Cyl + 4 Ant
製造者 LMMS
バスタイプ LM100
フェーズステータス In Orbit
所有者/国 GSFC/US

大規模コンステレーション

Loading constellations...